Radiation Dose at Monitoring Post of Fukushima Daini Nuclear Power Station
Date,Time,MP-1(microSv/h),MP-2(microSv/h),MP-3(microSv/h),MP-4(microSv/h),MP-5(microSv/h),MP-6(microSv/h),MP-7(microSv/h),Wind Direction,Wind Velocity(m/s),Rain
2020/09/17,00:00,0.178,0.158,0.264,0.249,0.245,0.139,0.084,north,1.0,No
2020/09/17,00:10,0.177,0.157,0.262,0.246,0.244,0.138,0.084,-,CALM,No
2020/09/17,00:20,0.178,0.158,0.262,0.248,0.247,0.139,0.083,north,1.2,No
2020/09/17,00:30,0.177,0.158,0.264,0.249,0.243,0.139,0.084,-,CALM,No
2020/09/17,00:40,0.178,0.157,0.261,0.245,0.247,0.139,0.083,north,0.9,No
2020/09/17,00:50,0.178,0.158,0.263,0.249,0.246,0.139,0.083,-,CALM,No
2020/09/17,01:00,0.177,0.157,0.262,0.246,0.244,0.139,0.084,north,1.0,No
2020/09/17,01:10,0.178,0.158,0.260,0.247,0.247,0.140,0.083,northwest,1.0,No
2020/09/17,01:20,0.178,0.156,0.263,0.248,0.246,0.138,0.084,north-northwest,0.6,No
2020/09/17,01:30,0.176,0.156,0.261,0.246,0.245,0.138,0.084,north-northwest,1.0,No
2020/09/17,01:40,0.178,0.158,0.262,0.249,0.247,0.139,0.083,north-northwest,1.0,No
2020/09/17,01:50,0.176,0.156,0.262,0.246,0.244,0.138,0.085,north,1.3,No
2020/09/17,02:00,0.177,0.158,0.261,0.248,0.247,0.139,0.083,north-northeast,0.8,No
2020/09/17,02:10,0.177,0.157,0.263,0.249,0.246,0.140,0.084,northeast,1.0,No
2020/09/17,02:20,0.177,0.156,0.261,0.246,0.243,0.138,0.084,north-northeast,0.8,No
2020/09/17,02:30,0.178,0.157,0.263,0.248,0.246,0.139,0.083,-,CALM,No
2020/09/17,02:40,0.176,0.157,0.261,0.246,0.246,0.139,0.084,-,CALM,No
2020/09/17,02:50,0.176,0.157,0.261,0.247,0.244,0.139,0.084,north-northwest,0.6,No
2020/09/17,03:00,0.177,0.157,0.264,0.247,0.247,0.139,0.083,-,CALM,No
2020/09/17,03:10,0.177,0.158,0.261,0.245,0.244,0.139,0.084,northwest,0.9,No
2020/09/17,03:20,0.178,0.157,0.262,0.248,0.244,0.138,0.083,northwest,0.8,No
2020/09/17,03:30,0.177,0.156,0.261,0.247,0.246,0.138,0.083,-,CALM,No
2020/09/17,03:40,0.175,0.157,0.258,0.246,0.243,0.139,0.083,northwest,1.4,No
2020/09/17,03:50,0.178,0.157,0.262,0.248,0.244,0.139,0.084,north-northwest,1.7,No
2020/09/17,04:00,0.176,0.157,0.261,0.246,0.247,0.139,0.083,northwest,1.0,No
2020/09/17,04:10,0.177,0.159,0.262,0.248,0.244,0.138,0.084,north-northwest,1.3,No
2020/09/17,04:20,0.179,0.157,0.261,0.248,0.246,0.138,0.083,northwest,1.0,No
2020/09/17,04:30,0.177,0.159,0.262,0.246,0.246,0.141,0.084,north-northwest,0.9,No
2020/09/17,04:40,0.178,0.157,0.263,0.249,0.245,0.139,0.084,north-northwest,1.6,No
2020/09/17,04:50,0.177,0.157,0.262,0.246,0.245,0.139,0.085,north-northwest,1.0,No
2020/09/17,05:00,0.178,0.157,0.263,0.248,0.244,0.140,0.084,-,CALM,No
2020/09/17,05:10,0.178,0.157,0.262,0.247,0.248,0.139,0.083,northwest,0.8,No
2020/09/17,05:20,0.176,0.158,0.261,0.246,0.244,0.139,0.084,north,2.3,No
2020/09/17,05:30,0.177,0.157,0.263,0.248,0.244,0.138,0.084,north,2.0,No
2020/09/17,05:40,0.177,0.158,0.261,0.245,0.246,0.139,0.084,north,2.9,No
2020/09/17,05:50,0.177,0.156,0.262,0.249,0.243,0.139,0.084,north-northeast,2.8,No
2020/09/17,06:00,0.177,0.158,0.260,0.248,0.247,0.138,0.083,north,1.3,No
2020/09/17,06:10,0.178,0.158,0.262,0.246,0.245,0.140,0.084,north,1.0,No
2020/09/17,06:20,0.178,0.157,0.262,0.249,0.245,0.139,0.084,-,CALM,No
2020/09/17,06:30,0.178,0.158,0.261,0.245,0.248,0.139,0.084,north,1.2,No
2020/09/17,06:40,0.176,0.156,0.263,0.249,0.245,0.140,0.084,north,1.2,No
2020/09/17,06:50,0.178,0.157,0.262,0.247,0.243,0.139,0.084,-,CALM,No
2020/09/17,07:00,0.178,0.157,0.260,0.245,0.247,0.138,0.083,north,1.0,No
2020/09/17,07:10,0.176,0.156,0.262,0.247,0.245,0.139,0.084,north-northwest,1.7,No
2020/09/17,07:20,0.178,0.157,0.261,0.247,0.242,0.138,0.084,north-northwest,1.7,No
2020/09/17,07:30,0.178,0.158,0.258,0.245,0.245,0.137,0.083,north,2.3,No
2020/09/17,07:40,0.176,0.156,0.258,0.243,0.246,0.139,0.083,north,1.5,No
2020/09/17,07:50,0.177,0.157,0.263,0.249,0.245,0.140,0.083,north-northeast,1.2,No
2020/09/17,08:00,0.178,0.158,0.262,0.248,0.242,0.138,0.082,north,0.7,No
2020/09/17,08:10,0.176,0.157,0.261,0.247,0.246,0.140,0.083,north-northeast,1.0,No
2020/09/17,08:20,0.175,0.156,0.260,0.244,0.246,0.140,0.083,north,1.1,No
2020/09/17,08:30,0.178,0.159,0.259,0.245,0.243,0.138,0.083,northeast,1.3,No
2020/09/17,08:40,0.177,0.157,0.260,0.245,0.242,0.138,0.083,north-northeast,1.3,No
2020/09/17,08:50,0.178,0.156,0.260,0.244,0.242,0.140,0.083,north-northeast,1.0,No
2020/09/17,09:00,0.176,0.156,0.260,0.246,0.244,0.140,0.084,-,CALM,No
2020/09/17,09:10,0.175,0.156,0.261,0.247,0.242,0.139,0.083,north,0.9,No
2020/09/17,09:20,0.175,0.158,0.260,0.246,0.243,0.139,0.084,-,CALM,No
2020/09/17,09:30,0.175,0.157,0.260,0.245,0.243,0.138,0.083,-,CALM,No
2020/09/17,09:40,0.176,0.156,0.260,0.247,0.244,0.138,0.084,east,1.3,No
2020/09/17,09:50,0.175,0.155,0.260,0.248,0.244,0.139,0.083,east-northeast,2.0,No
2020/09/17,10:00,0.177,0.156,0.261,0.247,0.245,0.139,0.083,east,1.7,No
2020/09/17,10:10,0.177,0.155,0.261,0.248,0.244,0.137,0.083,east-northeast,2.2,No
2020/09/17,10:20,0.176,0.156,0.260,0.247,0.245,0.139,0.083,east-southeast,1.1,No
2020/09/17,10:30,0.177,0.156,0.261,0.248,0.245,0.138,0.083,east-northeast,2.0,No
2020/09/17,10:40,0.176,0.156,0.262,0.247,0.245,0.139,0.083,east,1.1,No
2020/09/17,10:50,0.177,0.157,0.262,0.246,0.245,0.140,0.083,east-southeast,1.7,No
2020/09/17,11:00,0.176,0.157,0.261,0.247,0.245,0.140,0.083,east-southeast,2.3,No
2020/09/17,11:10,0.176,0.156,0.261,0.247,0.246,0.139,0.083,east-southeast,2.6,No
2020/09/17,11:20,0.177,0.156,0.263,0.247,0.245,0.139,0.083,southeast,2.0,No
2020/09/17,11:30,0.176,0.157,0.261,0.246,0.245,0.139,0.083,east-southeast,2.2,No
2020/09/17,11:40,0.176,0.157,0.262,0.247,0.246,0.139,0.083,east-southeast,2.4,No
2020/09/17,11:50,0.178,0.156,0.263,0.247,0.246,0.138,0.083,east,1.6,No
2020/09/17,12:00,0.176,0.157,0.264,0.247,0.246,0.139,0.084,east-southeast,2.4,No
2020/09/17,12:10,0.178,0.157,0.262,0.247,0.245,0.139,0.084,east,2.7,No
2020/09/17,12:20,0.176,0.157,0.262,0.247,0.245,0.138,0.083,east-southeast,2.6,No
2020/09/17,12:30,0.178,0.156,0.263,0.247,0.245,0.138,0.083,east-southeast,2.4,No
2020/09/17,12:40,0.178,0.157,0.262,0.248,0.243,0.139,0.083,southeast,2.5,No
2020/09/17,12:50,0.177,0.158,0.261,0.247,0.244,0.138,0.083,east-southeast,2.2,No
2020/09/17,13:00,0.177,0.157,0.261,0.247,0.246,0.139,0.083,east-southeast,2.1,No
2020/09/17,13:10,0.177,0.157,0.260,0.246,0.245,0.139,0.084,east-southeast,2.3,No
2020/09/17,13:20,0.176,0.157,0.262,0.247,0.244,0.139,0.084,southeast,2.0,No
2020/09/17,13:30,0.176,0.157,0.261,0.248,0.245,0.139,0.083,southeast,1.7,No
2020/09/17,13:40,0.176,0.157,0.263,0.247,0.243,0.139,0.083,east-southeast,1.7,No
2020/09/17,13:50,0.176,0.156,0.261,0.246,0.244,0.139,0.083,south-southeast,1.4,No
2020/09/17,14:00,0.175,0.157,0.260,0.245,0.243,0.139,0.083,southeast,1.6,No
2020/09/17,14:10,0.174,0.156,0.261,0.245,0.243,0.139,0.083,southeast,1.5,No
2020/09/17,14:20,0.175,0.156,0.260,0.246,0.242,0.140,0.084,southeast,1.9,No
2020/09/17,14:30,0.176,0.159,0.261,0.248,0.243,0.140,0.084,southeast,1.8,No
2020/09/17,14:40,0.178,0.158,0.265,0.249,0.243,0.138,0.084,southeast,1.9,No
2020/09/17,14:50,0.178,0.157,0.265,0.250,0.245,0.139,0.083,east-southeast,1.8,No
2020/09/17,15:00,0.177,0.156,0.263,0.248,0.248,0.139,0.083,east,2.1,No
2020/09/17,15:10,0.175,0.156,0.261,0.246,0.246,0.139,0.083,southeast,2.1,No
2020/09/17,15:20,0.175,0.156,0.261,0.246,0.245,0.139,0.083,southeast,1.8,No
2020/09/17,15:30,0.176,0.157,0.260,0.247,0.244,0.140,0.084,southeast,1.3,No
2020/09/17,15:40,0.175,0.157,0.263,0.250,0.242,0.139,0.083,southeast,1.8,No
2020/09/17,15:50,0.175,0.158,0.264,0.249,0.242,0.139,0.083,southeast,1.7,No
2020/09/17,16:00,0.178,0.156,0.262,0.247,0.246,0.138,0.083,east,0.7,No
2020/09/17,16:10,0.178,0.156,0.262,0.246,0.248,0.140,0.083,east,0.8,No
2020/09/17,16:20,0.177,0.158,0.261,0.246,0.245,0.141,0.084,-,CALM,No
2020/09/17,16:30,0.175,0.158,0.264,0.249,0.244,0.140,0.084,east-northeast,0.8,No
2020/09/17,16:40,0.177,0.156,0.264,0.248,0.244,0.139,0.083,south-southeast,0.8,No
2020/09/17,16:50,0.179,0.157,0.262,0.247,0.247,0.139,0.084,south-southeast,0.6,No
2020/09/17,17:00,0.177,0.159,0.262,0.248,0.247,0.140,0.084,southeast,0.6,No
2020/09/17,17:10,0.175,0.157,0.265,0.251,0.245,0.140,0.084,south,1.3,No
2020/09/17,17:20,0.178,0.157,0.264,0.248,0.242,0.139,0.083,south-southeast,0.6,No
2020/09/17,17:30,0.179,0.158,0.261,0.247,0.247,0.139,0.084,south,0.8,No
2020/09/17,17:40,0.177,0.158,0.264,0.249,0.246,0.140,0.083,-,CALM,No
2020/09/17,17:50,0.176,0.156,0.264,0.250,0.245,0.140,0.083,east-northeast,0.6,No
2020/09/17,18:00,0.179,0.158,0.262,0.246,0.244,0.138,0.084,northeast,1.0,No
2020/09/17,18:10,0.178,0.158,0.264,0.249,0.248,0.140,0.083,east-northeast,0.9,No
2020/09/17,18:20,0.176,0.158,0.265,0.251,0.244,0.139,0.083,north-northeast,1.0,No
2020/09/17,18:30,0.178,0.157,0.263,0.247,0.244,0.139,0.083,east-northeast,1.0,No
2020/09/17,18:40,0.177,0.157,0.263,0.248,0.247,0.140,0.084,east-northeast,1.8,No
2020/09/17,18:50,0.176,0.156,0.266,0.249,0.245,0.140,0.083,-,CALM,No
2020/09/17,19:00,0.177,0.157,0.261,0.247,0.244,0.139,0.083,south,0.6,No
2020/09/17,19:10,0.178,0.158,0.260,0.247,0.245,0.139,0.084,-,CALM,No
2020/09/17,19:20,0.177,0.156,0.264,0.250,0.247,0.140,0.084,-,CALM,No
2020/09/17,19:30,0.175,0.157,0.263,0.248,0.245,0.140,0.083,-,CALM,No
2020/09/17,19:40,0.178,0.158,0.262,0.246,0.243,0.139,0.084,-,CALM,No
2020/09/17,19:50,0.178,0.157,0.263,0.250,0.247,0.140,0.084,-,CALM,No
2020/09/17,20:00,0.175,0.156,0.263,0.249,0.245,0.139,0.083,south-southeast,0.6,No
2020/09/17,20:10,0.176,0.157,0.262,0.247,0.242,0.139,0.084,south,0.9,No
2020/09/17,20:20,0.178,0.157,0.263,0.249,0.246,0.140,0.083,-,CALM,No
2020/09/17,20:30,0.176,0.157,0.264,0.248,0.246,0.140,0.084,south,0.7,No
2020/09/17,20:40,0.177,0.158,0.261,0.248,0.244,0.138,0.083,south,1.5,No
2020/09/17,20:50,0.177,0.157,0.265,0.249,0.247,0.140,0.084,-,CALM,No
2020/09/17,21:00,0.176,0.157,0.264,0.248,0.246,0.139,0.083,south-southwest,0.6,No
2020/09/17,21:10,0.176,0.157,0.262,0.247,0.244,0.139,0.084,south-southwest,1.1,No
2020/09/17,21:20,0.178,0.157,0.264,0.249,0.246,0.140,0.084,south,1.6,No
2020/09/17,21:30,0.177,0.158,0.264,0.249,0.247,0.140,0.083,south,1.6,No
2020/09/17,21:40,0.177,0.158,0.262,0.248,0.244,0.140,0.084,south,2.1,No
2020/09/17,21:50,0.178,0.156,0.265,0.250,0.245,0.140,0.084,south-southeast,3.5,No
2020/09/17,22:00,0.178,0.159,0.264,0.249,0.248,0.141,0.084,south,4.3,No
2020/09/17,22:10,0.176,0.158,0.262,0.248,0.245,0.139,0.083,south-southeast,3.9,No
2020/09/17,22:20,0.178,0.157,0.264,0.250,0.245,0.139,0.084,south,3.6,No
2020/09/17,22:30,0.178,0.158,0.265,0.249,0.248,0.140,0.084,south,3.9,No
2020/09/17,22:40,0.176,0.158,0.262,0.248,0.246,0.141,0.084,south,2.8,No
2020/09/17,22:50,0.180,0.157,0.265,0.250,0.246,0.139,0.085,south,2.0,No
2020/09/17,23:00,0.178,0.158,0.264,0.249,0.247,0.140,0.084,south-southeast,3.6,No
2020/09/17,23:10,0.177,0.158,0.263,0.247,0.246,0.140,0.083,south,3.4,Yes
2020/09/17,23:20,0.179,0.157,0.264,0.249,0.243,0.139,0.083,south,3.2,No
2020/09/17,23:30,0.178,0.158,0.265,0.249,0.248,0.140,0.084,south,3.8,No
2020/09/17,23:40,0.178,0.157,0.261,0.248,0.246,0.140,0.084,south,3.5,No
2020/09/17,23:50,0.178,0.158,0.264,0.250,0.245,0.140,0.084,south,4.0,No
